TimeCDT,TemperatureF,Dew PointF,Humidity,Sea Level PressureIn,VisibilityMPH,Wind Direction,Wind SpeedMPH,Gust SpeedMPH,PrecipitationIn,Events,Conditions,WindDirDegrees,DateUTC
12:15 AM,74.7,68.2,80,29.97,10.0,NE,5.8,-,N/A,,Clear,40,2012-10-16 05:15:00
12:35 AM,74.3,68.4,82,29.96,10.0,NNE,4.6,-,N/A,,Clear,30,2012-10-16 05:35:00
12:55 AM,73.8,68.5,84,29.96,10.0,NNE,4.6,-,N/A,,Clear,30,2012-10-16 05:55:00
1:35 AM,72.9,68.0,85,29.94,10.0,NE,5.8,-,N/A,,Clear,50,2012-10-16 06:35:00
1:55 AM,72.9,68.0,85,29.94,10.0,NE,4.6,-,N/A,,Clear,50,2012-10-16 06:55:00
2:15 AM,73.4,68.0,83,29.94,10.0,Calm,Calm,-,N/A,,Clear,0,2012-10-16 07:15:00
2:35 AM,74.5,67.6,79,29.94,10.0,East,3.5,-,N/A,,Clear,100,2012-10-16 07:35:00
2:55 AM,75.4,66.9,75,29.94,10.0,East,5.8,-,N/A,,Clear,100,2012-10-16 07:55:00
3:15 AM,75.9,66.4,72,29.92,10.0,East,5.8,-,N/A,,Clear,90,2012-10-16 08:15:00
3:35 AM,76.5,66.6,71,29.92,10.0,East,5.8,-,N/A,,Clear,100,2012-10-16 08:35:00
3:55 AM,76.5,66.6,71,29.92,10.0,East,4.6,-,N/A,,Clear,100,2012-10-16 08:55:00
4:15 AM,76.3,66.7,72,29.91,10.0,ESE,4.6,-,N/A,,Clear,110,2012-10-16 09:15:00
5:15 AM,75.2,67.6,77,29.90,10.0,ESE,4.6,-,N/A,,Clear,110,2012-10-16 10:15:00
5:35 AM,75.6,67.8,77,29.90,10.0,East,3.5,-,N/A,,Clear,100,2012-10-16 10:35:00
5:55 AM,75.9,68.0,76,29.90,10.0,ESE,3.5,-,N/A,,Clear,110,2012-10-16 10:55:00
6:15 AM,75.6,68.0,77,29.90,10.0,Calm,Calm,-,N/A,,Clear,0,2012-10-16 11:15:00
6:35 AM,74.5,68.4,81,29.89,10.0,East,4.6,-,N/A,,Clear,100,2012-10-16 11:35:00
7:15 AM,74.5,68.9,83,29.89,10.0,East,4.6,-,N/A,,Clear,90,2012-10-16 12:15:00
7:35 AM,75.0,69.6,83,29.89,10.0,East,3.5,-,N/A,,Clear,90,2012-10-16 12:35:00
7:55 AM,75.2,69.8,83,29.89,10.0,East,4.6,-,N/A,,Scattered Clouds,100,2012-10-16 12:55:00
8:35 AM,78.1,72.0,81,29.90,10.0,East,3.5,-,N/A,,Overcast,80,2012-10-16 13:35:00
8:55 AM,79.7,72.1,78,29.90,10.0,East,5.8,-,N/A,,Scattered Clouds,100,2012-10-16 13:55:00
9:15 AM,80.1,72.5,78,29.91,10.0,ESE,5.8,-,N/A,,Scattered Clouds,110,2012-10-16 14:15:00
9:35 AM,80.8,72.7,76,29.91,10.0,SE,5.8,-,N/A,,Mostly Cloudy,130,2012-10-16 14:35:00
9:55 AM,81.7,72.7,74,29.91,10.0,ESE,8.1,-,N/A,,Mostly Cloudy,120,2012-10-16 14:55:00
10:15 AM,81.0,72.9,76,29.91,7.0,SE,8.1,-,0.01,Rain,Rain,130,2012-10-16 15:15:00
11:15 AM,78.1,73.4,85,29.91,10.0,Calm,Calm,-,0.06,,Mostly Cloudy,0,2012-10-16 16:15:00
11:55 AM,79.0,74.5,86,29.90,7.0,Calm,Calm,-,0.06,,Light Drizzle,0,2012-10-16 16:55:00
12:15 PM,80.1,75.0,85,29.89,10.0,West,3.5,-,N/A,,Mostly Cloudy,270,2012-10-16 17:15:00
12:35 PM,81.0,74.8,82,29.89,10.0,West,3.5,-,N/A,,Clear,270,2012-10-16 17:35:00
12:55 PM,81.5,74.1,78,29.88,10.0,WSW,4.6,-,N/A,,Clear,240,2012-10-16 17:55:00
1:15 PM,82.0,73.9,76,29.87,10.0,SSW,3.5,-,N/A,,Scattered Clouds,200,2012-10-16 18:15:00
1:35 PM,83.1,73.2,72,29.85,10.0,Calm,Calm,-,N/A,,Mostly Cloudy,0,2012-10-16 18:35:00
1:55 PM,84.6,72.5,67,29.84,10.0,Calm,Calm,-,N/A,,Scattered Clouds,0,2012-10-16 18:55:00
2:15 PM,86.4,71.1,60,29.82,10.0,Calm,Calm,-,N/A,,Clear,0,2012-10-16 19:15:00
2:35 PM,86.0,69.8,58,29.81,10.0,SSW,6.9,-,N/A,,Scattered Clouds,210,2012-10-16 19:35:00
3:15 PM,84.2,72.5,68,29.79,10.0,SSE,8.1,-,N/A,,Scattered Clouds,150,2012-10-16 20:15:00
3:35 PM,84.4,72.5,67,29.79,10.0,SE,8.1,-,N/A,,Mostly Cloudy,140,2012-10-16 20:35:00
3:55 PM,83.8,72.9,69,29.78,10.0,SSE,6.9,-,N/A,,Overcast,150,2012-10-16 20:55:00
4:15 PM,82.9,72.9,71,29.78,10.0,SSE,9.2,-,N/A,,Overcast,150,2012-10-16 21:15:00
4:35 PM,82.4,73.2,74,29.77,10.0,SE,8.1,-,N/A,,Overcast,140,2012-10-16 21:35:00
4:55 PM,81.9,73.4,75,29.76,10.0,SE,8.1,-,N/A,,Overcast,140,2012-10-16 21:55:00
5:15 PM,81.5,73.6,77,29.76,10.0,SE,10.4,-,N/A,,Mostly Cloudy,140,2012-10-16 22:15:00
5:35 PM,81.1,73.4,77,29.75,10.0,SE,8.1,-,N/A,,Mostly Cloudy,140,2012-10-16 22:35:00
5:55 PM,80.8,73.4,78,29.76,10.0,SE,8.1,-,N/A,,Mostly Cloudy,140,2012-10-16 22:55:00
6:15 PM,80.6,73.0,78,29.77,10.0,SE,5.8,-,N/A,,Mostly Cloudy,140,2012-10-16 23:15:00
6:35 PM,80.4,72.9,78,29.76,10.0,SE,6.9,-,N/A,,Scattered Clouds,130,2012-10-16 23:35:00
6:55 PM,80.2,72.7,78,29.76,10.0,ESE,8.1,-,N/A,,Scattered Clouds,120,2012-10-16 23:55:00
7:15 PM,80.2,72.9,78,29.76,10.0,ESE,4.6,-,N/A,,Mostly Cloudy,110,2012-10-17 00:15:00
7:35 PM,79.9,73.0,80,29.77,10.0,ESE,4.6,-,N/A,,Scattered Clouds,110,2012-10-17 00:35:00
7:55 PM,79.7,73.0,80,29.78,10.0,ESE,5.8,-,N/A,,Mostly Cloudy,110,2012-10-17 00:55:00
8:15 PM,79.9,73.4,80,29.78,10.0,East,4.6,-,N/A,,Scattered Clouds,90,2012-10-17 01:15:00
8:35 PM,80.2,73.4,80,29.79,10.0,ENE,4.6,-,N/A,,Scattered Clouds,70,2012-10-17 01:35:00
8:55 PM,79.9,73.4,80,29.80,10.0,East,4.6,-,N/A,,Scattered Clouds,80,2012-10-17 01:55:00
9:15 PM,79.9,73.6,81,29.81,10.0,ENE,4.6,-,N/A,,Mostly Cloudy,70,2012-10-17 02:15:00
9:35 PM,79.9,74.1,82,29.81,10.0,East,5.8,-,N/A,,Mostly Cloudy,80,2012-10-17 02:35:00
9:55 PM,80.1,74.3,82,29.82,10.0,East,5.8,-,N/A,,Mostly Cloudy,100,2012-10-17 02:55:00
10:15 PM,78.3,73.2,84,29.82,10.0,ENE,11.5,18.4,N/A,,Mostly Cloudy,70,2012-10-17 03:15:00
10:35 PM,75.7,71.1,85,29.81,10.0,East,11.5,16.1,N/A,,Mostly Cloudy,80,2012-10-17 03:35:00
10:55 PM,75.4,71.1,86,29.79,10.0,East,13.8,17.3,N/A,,Mostly Cloudy,90,2012-10-17 03:55:00
11:15 PM,76.1,72.0,87,29.80,10.0,East,11.5,17.3,N/A,,Scattered Clouds,90,2012-10-17 04:15:00
11:55 PM,76.6,72.5,87,29.79,10.0,East,12.7,17.3,N/A,,Clear,90,2012-10-17 04:55:00